{"data":{"norad_id":61257,"intl_designator":"2024-175Q","name":"STARLINK-32432","alt_names":[],"object_type":"PAYLOAD","status":"ACTIVE","operator":null,"country":"US","launch_date":"2024-09-25","launch_site_code":"AFWTR","launch_vehicle":null,"mission":null,"orbit_class":"UNKNOWN","rcs_meters":null,"size_class":null,"mass_kg":null,"dimensions":null,"purposes":["comms"],"wikipedia_slug":null,"has_3d_model":false,"image_url":null,"decayed_at":null,"tle_current":{"epoch":"2026-09-21T07:32:18.974400Z","epoch_age_seconds":122045,"freshness":"FRESH","line1":"1 61257U 24175Q   26264.31410850 -.00001663  00000+0 -38131-4 0  9999","line2":"2 61257  53.1603   1.9074 0000911  84.5910 275.5197 15.34378529111455","mean_motion":15.34378529,"eccentricity":9.11e-5,"inclination_deg":53.1603,"raan_deg":1.9074,"arg_perigee_deg":84.591,"mean_anomaly_deg":275.5197,"bstar":-3.8131e-5,"rev_number":11145,"period_min":93.849071320002,"perigee_km":462.14385092846,"apogee_km":463.3902636477,"semimajor_km":6840.9040572881,"source":"CELESTRAK","updated_at":"2026-09-22T09:00:49.350921Z"}}}